Regional Weather Roundup
Issued by NWS Burlington, VT

Current Version | Previous Version | Graphics & Text | Print | Product List | Glossary Off
Versions: 1 2 3 4 5 6 7 8 9 10 11 12 13 14 15 16 17 18 19 20 21 22 23 24 25 26 27 28 29 30 31 32 33 34 35 36 37 38 39 40 41 42 43 44 45 46 47 48 49 50

000
ASUS41 KBTV 171330
RWRBTV
VERMONT REGIONAL WEATHER ROUNDUP
NATIONAL WEATHER SERVICE BURLINGTON VT
800 AM EST SUN DEC 17 2017

NOTE: "FAIR" INDICATES FEW OR NO CLOUDS BELOW 12,000 FEET WITH NO
SIGNIFICANT WEATHER AND/OR OBSTRUCTIONS TO VISIBILITY.

* THESE REPORTS ARE NOT UNDER NWS QUALITY CONTROL AND/OR DO NOT
  REPORT WEATHER SUCH AS PRECIPITATION AND FOG.

VTZ001>019-171400-
_____VERMONT_____


CITY           SKY/WX    TMP DP  RH WIND       PRES   REMARKS
BURLINGTON     MOCLDY     3  -1  83 CALM      30.31R
MONTPELIER     PTCLDY    -6  -8  91 CALM      30.24S
MORRISVILLE    CLOUDY    -9 -11  91 S3        30.27R
ST. JOHNSBURY*   N/A     -7 -11  83 MISG      30.24S
LYNDONVILLE*   FAIR      -3  -7  85 CALM      30.21S
MIDDLEBURY*    FAIR      -1  -5  84 CALM      30.28R
RUTLAND*       CLOUDY    -1  -5  82 SE7       30.26R WCI -14
SPRINGFIELD    CLOUDY    -5  -7  91 CALM      30.27R
HIGHGATE*      FAIR       4   1  87 NW3       30.33R
NEWPORT*       LGT SNOW  -6 -10  83 SW3       30.24S VSB 3/4
BENNINGTON     CLOUDY     3  -1  83 CALM      30.24R
ISLAND POND*     N/A    -13 N/A N/A CALM        N/A
UNION VILLAGE*   N/A     -6 N/A N/A MISG        N/A
MT. MANSFIELD*   N/A      0 N/A N/A W29         N/A  WCI -26

_____LAKE CHAMPLAIN_____


CITY           SKY/WX    TMP DP  RH WIND       PRES   REMARKS
BURTON ISLAND*   N/A      9   5  85 MISG        N/A
COLCHESTER RF*   N/A     14  12  92 NE14        N/A  WCI  -1

$$

NYZ007-026>031-035-052-083-087-171400-
_____NORTHERN NEW YORK_____


CITY           SKY/WX    TMP DP  RH WIND       PRES   REMARKS
PLATTSBURGH    CLOUDY     2  -3  80 NW6       30.30S WCI  -9
SARANAC LAKE   CLOUDY   -17 -22  78 CALM      30.15R
MASSENA        CLOUDY    -8 -12  83 SW5       30.37R WCI -19
OGDENSBURG*    FAIR     -12 -16  82 CALM      30.35R
POTSDAM*       CLEAR    -11 -17  77 CALM      30.33R
STARK FALLS*     N/A     -4 N/A N/A SE5         N/A  WCI -15
WATERTOWN      CLOUDY    -5  -8  87 NE3       30.33R
FT DRUM        CLOUDY    -7 -12  78 CALM      30.29R
ALBANY         CLOUDY     9   4  80 N3        30.30R
GLENS FALLS    CLOUDY    -3  -7  82 CALM      30.30R

$$
NHZ002-005-011-171400-
_____NEW HAMPSHIRE_____


CITY           SKY/WX    TMP DP  RH WIND       PRES   REMARKS
LEBANON        CLOUDY    -7 -12  79 CALM      30.26R
KEENE          CLOUDY    -2  -5  87 CALM      30.28R
MT WASHINGTON  PTCLDY    -4 -18  50 NW52        N/A  WCI -37
PLYMOUTH       FAIR       8   3  80 W5        30.24S WCI   0
WHITEFIELD     CLOUDY   -12 -16  82 CALM      30.20S

$$

_____REGIONAL QUEBEC LOCATIONS_____


CITY           SKY/WX    TMP DP  RH WIND       PRES   REMARKS
MONTREAL       MOCLDY    -2  -8  78 SW5       30.34R WCI -12
QUEBEC CITY    PTCLDY    -2 -11  65 W14       30.26R WCI -21
SHERBROOKE     LGT SNOW   3  -2  78 W5        30.23S WCI  -6

_____REGIONAL ONTARIO LOCATIONS_____


CITY           SKY/WX    TMP DP  RH WIND       PRES   REMARKS
OTTAWA         PTCLDY    -6 -11  77 W6        30.34R WCI -18

______KEY______
VSB  - VISIBILITY IN MILES
WCI  - WIND CHILL INDEX
HX   - HEAT INDEX
$$
NNNN



USA.gov is the U.S. government's official web portal to all federal, state and local government web resources and services.